Погода в Накхонратчасиме

Таиланд     14°58′27″N   102°06′18″E
темп.,
°C
ветер,
м/с
пор.,
м/с
влажн.,
%
обл.,
%
осадки,
мм/ч
давл.,
гПа
погр.,
м
5 декабря, вс
вс501:00+15св31154100 0.0 1017214
04:00+13св397183 0.0 1017237
07:00+13св2118253 0.0 1019355
10:00+20всв6105397 0.0 1020786
13:00+24св69385 0.0 10161252
16:00+25св584610 0.0 10131441
19:00+19св356295 0.0 101562
22:00+17св346672 0.0 101757
6 декабря, пн
пн601:00+16св356892 0.0 101683
04:00+15св3379100 0.0 101646
07:00+14св29805 0.0 1018311
10:00+21всв68458 0.0 1019770
13:00+25всв67405 0.0 10151189
16:00+25всв46446 0.0 10131350
19:00+20св33554 0.0 101539
22:00+18св23561 0.0 101625
7 декабря, вт
вт701:00+17всв38615 0.0 1016160
04:00+15св237045 0.0 101639
07:00+14св256977 0.0 1018142
10:00+21всв694643 0.0 1019753
13:00+25св67425 0.0 10151254
16:00+25св57439 0.0 10131396
19:00+20ссв35495 0.0 101559
22:00+19ссв34425 0.0 101655
8 декабря, ср
ср801:00+17св375726 0.0 1016124
04:00+16св3678100 0.0 1016118
07:00+15св28825 0.0 1018256
10:00+22всв57585 0.0 1019777
13:00+26св564929 0.0 10151338
16:00+27св565094 0.0 10131466
19:00+22св336473 0.0 101541
22:00+20ссв346982 0.0 101650
9 декабря, чт
чт901:00+19св357665 0.0 1016102
04:00+18св3984100 0.0 1016338
07:00+18всв2128869 0.0 1018569
10:00+25всв7106566 0.0 10191087
13:00+28всв8953100 0.0 10151782
16:00+26всв61061100 0.0 1013731
19:00+25св61160100 0.0 1015759
22:00+24всв5116255 0.0 1016683